RYR61LK LEPA-LEZL

Flight info

Callsign RYR61LK
Flight time N/A
Altitude 35000
Route EPAMA N733 VLC M985 MAMIS
Aircraft B738/M-SDE2E3FGHIRWXY/LB1

Departure

Time N/A
Airport Palma de Mallorca Airport (LEPA)

Arrival

Time 2026-04-16 15:07
Airport Seville Airport (LEZL)
Time Latitude Longitude Altitude Speed Heading
2026-04-16 14:17 37.74993 -3.16729 35150 ft 441 kts 241°
2026-04-16 14:18 37.73674 -3.20157 35288 ft 430 kts 253°
2026-04-16 14:18 37.73053 -3.23826 35228 ft 423 kts 266°
2026-04-16 14:18 37.72642 -3.31265 35204 ft 424 kts 268°
2026-04-16 14:19 37.72286 -3.38713 35188 ft 425 kts 268°
2026-04-16 14:19 37.71895 -3.46175 35189 ft 426 kts 267°
2026-04-16 14:20 37.71488 -3.53634 35195 ft 426 kts 267°
2026-04-16 14:20 37.71064 -3.61162 34483 ft 436 kts 267°
2026-04-16 14:21 37.70845 -3.64974 33792 ft 435 kts 267°
2026-04-16 14:21 37.70617 -3.68786 33043 ft 436 kts 266°
2026-04-16 14:21 37.70387 -3.72610 32301 ft 437 kts 266°
2026-04-16 14:21 37.70159 -3.76405 31536 ft 439 kts 266°
2026-04-16 14:22 37.69926 -3.80301 30723 ft 441 kts 266°
2026-04-16 14:22 37.69696 -3.84172 29936 ft 442 kts 267°
2026-04-16 14:22 37.69469 -3.88019 29367 ft 438 kts 267°
2026-04-16 14:22 37.69242 -3.91837 28754 ft 435 kts 266°
2026-04-16 14:23 37.69014 -3.95635 28154 ft 432 kts 266°
2026-04-16 14:23 37.68788 -3.99397 27561 ft 429 kts 266°
2026-04-16 14:23 37.68562 -4.03127 26971 ft 426 kts 266°
2026-04-16 14:23 37.68335 -4.06849 26382 ft 423 kts 266°
2026-04-16 14:24 37.68109 -4.10541 25795 ft 420 kts 265°
2026-04-16 14:24 37.67884 -4.14199 25217 ft 418 kts 266°
2026-04-16 14:24 37.67658 -4.17854 24634 ft 415 kts 265°
2026-04-16 14:24 37.67434 -4.21471 24045 ft 413 kts 265°
2026-04-16 14:25 37.67209 -4.25084 23467 ft 411 kts 265°
2026-04-16 14:25 37.66984 -4.28671 22896 ft 409 kts 265°
2026-04-16 14:25 37.66761 -4.32235 22332 ft 407 kts 265°
2026-04-16 14:25 37.66537 -4.35777 21749 ft 405 kts 265°
2026-04-16 14:26 37.66312 -4.39314 21184 ft 402 kts 265°
2026-04-16 14:26 37.66088 -4.42824 20617 ft 400 kts 265°
2026-04-16 14:26 37.65864 -4.46312 20059 ft 398 kts 265°
2026-04-16 14:26 37.65640 -4.49784 19488 ft 396 kts 265°
2026-04-16 14:27 37.65417 -4.53239 18924 ft 394 kts 265°
2026-04-16 14:27 37.65194 -4.56664 18369 ft 391 kts 265°
2026-04-16 14:27 37.64972 -4.60073 17824 ft 389 kts 265°
2026-04-16 14:27 37.64750 -4.63460 17274 ft 386 kts 265°
2026-04-16 14:28 37.64528 -4.66835 16716 ft 385 kts 265°
2026-04-16 14:28 37.64306 -4.70182 16173 ft 383 kts 265°
2026-04-16 14:28 37.64084 -4.73522 15627 ft 380 kts 265°
2026-04-16 14:28 37.63863 -4.76836 15088 ft 378 kts 265°
2026-04-16 14:29 37.63642 -4.80133 14547 ft 376 kts 265°
2026-04-16 14:29 37.63424 -4.83373 14009 ft 374 kts 265°
2026-04-16 14:29 37.63205 -4.86633 13474 ft 372 kts 265°
2026-04-16 14:29 37.62985 -4.89877 12936 ft 370 kts 265°
2026-04-16 14:30 37.62767 -4.93094 12391 ft 368 kts 265°
2026-04-16 14:30 37.62548 -4.96305 11827 ft 367 kts 265°
2026-04-16 14:30 37.62329 -4.99514 11255 ft 365 kts 265°
2026-04-16 14:30 37.62112 -5.02669 11013 ft 355 kts 265°
2026-04-16 14:31 37.61901 -5.05719 10813 ft 344 kts 264°
2026-04-16 14:31 37.61694 -5.08679 10644 ft 333 kts 264°
2026-04-16 14:31 37.61494 -5.11538 10513 ft 322 kts 264°
2026-04-16 14:31 37.61303 -5.14302 10375 ft 312 kts 264°
2026-04-16 14:32 37.61116 -5.16993 10234 ft 303 kts 264°
2026-04-16 14:32 37.60931 -5.19601 10117 ft 294 kts 264°
2026-04-16 14:32 37.60749 -5.22127 9884 ft 289 kts 263°
2026-04-16 14:32 37.60575 -5.24665 9532 ft 290 kts 266°
2026-04-16 14:33 37.60832 -5.27197 9124 ft 293 kts 282°
2026-04-16 14:33 37.61315 -5.29703 8748 ft 294 kts 282°
2026-04-16 14:33 37.61798 -5.32200 8436 ft 293 kts 282°
2026-04-16 14:33 37.62273 -5.34688 8128 ft 291 kts 282°
2026-04-16 14:34 37.62741 -5.37166 7815 ft 290 kts 282°
2026-04-16 14:34 37.63204 -5.39639 7510 ft 288 kts 282°
2026-04-16 14:34 37.63660 -5.42093 7225 ft 288 kts 281°
2026-04-16 14:34 37.64111 -5.44547 6932 ft 286 kts 281°
2026-04-16 14:35 37.64557 -5.46987 6610 ft 286 kts 281°
2026-04-16 14:35 37.64861 -5.49464 6320 ft 285 kts 266°
2026-04-16 14:35 37.64357 -5.51835 6031 ft 280 kts 239°
2026-04-16 14:35 37.63140 -5.53709 5790 ft 275 kts 218°
2026-04-16 14:36 37.61650 -5.55205 5527 ft 275 kts 216°
2026-04-16 14:36 37.60134 -5.56660 5263 ft 273 kts 215°
2026-04-16 14:36 37.58631 -5.58101 4967 ft 274 kts 216°
2026-04-16 14:36 37.57114 -5.59561 4603 ft 271 kts 215°
2026-04-16 14:37 37.55648 -5.60985 4337 ft 263 kts 216°
2026-04-16 14:37 37.54211 -5.62375 4092 ft 258 kts 214°
2026-04-16 14:37 37.52800 -5.63742 3832 ft 254 kts 216°
2026-04-16 14:37 37.51410 -5.65112 3624 ft 251 kts 216°
2026-04-16 14:38 37.50046 -5.66452 3376 ft 245 kts 216°
2026-04-16 14:38 37.48718 -5.67753 3147 ft 240 kts 214°
2026-04-16 14:38 37.47402 -5.69036 2869 ft 237 kts 216°
2026-04-16 14:38 37.46128 -5.70292 2669 ft 230 kts 215°
2026-04-16 14:39 37.44888 -5.71515 2474 ft 222 kts 216°
2026-04-16 14:39 37.43682 -5.72681 2266 ft 216 kts 215°
2026-04-16 14:39 37.42499 -5.73852 2144 ft 217 kts 221°
2026-04-16 14:39 37.41752 -5.75457 2083 ft 214 kts 261°
2026-04-16 14:40 37.41718 -5.76686 2111 ft 213 kts 268°
2026-04-16 14:40 37.41730 -5.78567 2101 ft 217 kts 268°
2026-04-16 14:40 37.41751 -5.80486 2100 ft 220 kts 269°
2026-04-16 14:40 37.41770 -5.82399 2097 ft 218 kts 268°
2026-04-16 14:41 37.41775 -5.84304 2092 ft 218 kts 268°
2026-04-16 14:41 37.41769 -5.86207 2083 ft 217 kts 268°
2026-04-16 14:41 37.41754 -5.88113 1966 ft 223 kts 268°
2026-04-16 14:41 37.41720 -5.90041 1979 ft 216 kts 268°
2026-04-16 14:42 37.41697 -5.91902 2014 ft 212 kts 267°
2026-04-16 14:42 37.41677 -5.93776 2074 ft 215 kts 265°
2026-04-16 14:42 37.41745 -5.95677 2065 ft 224 kts 287°
2026-04-16 14:42 37.42668 -5.97256 2101 ft 232 kts 326°
2026-04-16 14:43 37.44181 -5.97735 2335 ft 228 kts
2026-04-16 14:43 37.45609 -5.96907 2610 ft 232 kts 46°
2026-04-16 14:43 37.46376 -5.95149 2904 ft 231 kts 72°
2026-04-16 14:43 37.46841 -5.93229 3034 ft 227 kts 73°
2026-04-16 14:44 37.47293 -5.91321 3084 ft 230 kts 73°
2026-04-16 14:44 37.47759 -5.89389 3050 ft 230 kts 72°
2026-04-16 14:44 37.48230 -5.87470 3059 ft 230 kts 73°
2026-04-16 14:44 37.48689 -5.85521 3037 ft 234 kts 73°
2026-04-16 14:45 37.49134 -5.83578 3078 ft 232 kts 74°
2026-04-16 14:45 37.49571 -5.81622 3089 ft 231 kts 73°
2026-04-16 14:45 37.50022 -5.79671 3096 ft 232 kts 73°
2026-04-16 14:45 37.50475 -5.77738 3076 ft 233 kts 73°
2026-04-16 14:46 37.50943 -5.75758 3047 ft 231 kts 73°
2026-04-16 14:46 37.51384 -5.73854 3079 ft 228 kts 73°
2026-04-16 14:46 37.51834 -5.71934 3060 ft 227 kts 74°
2026-04-16 14:46 37.52279 -5.70021 3058 ft 229 kts 73°
2026-04-16 14:47 37.52729 -5.68098 3052 ft 230 kts 74°
2026-04-16 14:47 37.53174 -5.66184 3052 ft 225 kts 73°
2026-04-16 14:47 37.53626 -5.64257 3106 ft 231 kts 73°
2026-04-16 14:47 37.54076 -5.62326 3071 ft 231 kts 74°
2026-04-16 14:48 37.54517 -5.60385 3039 ft 230 kts 73°
2026-04-16 14:48 37.54955 -5.58475 3104 ft 226 kts 73°
2026-04-16 14:48 37.55402 -5.56561 3068 ft 230 kts 73°
2026-04-16 14:48 37.55855 -5.54624 3080 ft 232 kts 73°
2026-04-16 14:49 37.56310 -5.52677 3080 ft 230 kts 72°
2026-04-16 14:49 37.56757 -5.50754 3062 ft 228 kts 73°
2026-04-16 14:49 37.57199 -5.48850 3087 ft 226 kts 74°
2026-04-16 14:49 37.57640 -5.46930 3082 ft 230 kts 74°
2026-04-16 14:50 37.58090 -5.44996 3114 ft 230 kts 73°
2026-04-16 14:50 37.58543 -5.43048 3102 ft 229 kts 73°
2026-04-16 14:50 37.58990 -5.41116 3099 ft 230 kts 73°
2026-04-16 14:50 37.59110 -5.39142 3092 ft 227 kts 104°
2026-04-16 14:51 37.58243 -5.37526 3083 ft 226 kts 144°
2026-04-16 14:51 37.56782 -5.36864 3100 ft 228 kts 172°
2026-04-16 14:51 37.55228 -5.37097 3136 ft 227 kts 199°
2026-04-16 14:51 37.53916 -5.38246 3108 ft 236 kts 227°
2026-04-16 14:53 37.48561 -5.51048 3120 ft 236 kts 241°
2026-04-16 14:53 37.47815 -5.52891 3113 ft 235 kts 240°
2026-04-16 14:54 37.47063 -5.54721 3090 ft 235 kts 240°
2026-04-16 14:54 37.46306 -5.56541 3092 ft 235 kts 240°
2026-04-16 14:54 37.45567 -5.58366 3100 ft 235 kts 241°
2026-04-16 14:54 37.44818 -5.60219 3045 ft 238 kts 241°
2026-04-16 14:55 37.44072 -5.62041 3093 ft 235 kts 240°
2026-04-16 14:55 37.43315 -5.63884 3052 ft 239 kts 240°
2026-04-16 14:55 37.42561 -5.65717 3058 ft 233 kts 240°
2026-04-16 14:55 37.41867 -5.67562 3054 ft 236 kts 252°
2026-04-16 14:56 37.41747 -5.69627 3112 ft 239 kts 270°
2026-04-16 14:56 37.41799 -5.71719 3104 ft 238 kts 269°
2026-04-16 14:56 37.41807 -5.73809 3062 ft 240 kts 268°
2026-04-16 14:56 37.41804 -5.75888 3089 ft 238 kts 268°
2026-04-16 14:57 37.41800 -5.77968 3092 ft 235 kts 268°
2026-04-16 14:57 37.41792 -5.80030 3065 ft 238 kts 268°
2026-04-16 14:57 37.41790 -5.82117 3067 ft 238 kts 268°
2026-04-16 14:57 37.41785 -5.84192 3059 ft 238 kts 268°
2026-04-16 14:58 37.41777 -5.86269 3060 ft 237 kts 268°
2026-04-16 14:58 37.41787 -5.90427 3061 ft 240 kts 268°
2026-04-16 14:58 37.41406 -5.92428 3055 ft 237 kts 233°
2026-04-16 14:59 37.40143 -5.93655 3057 ft 231 kts 193°
2026-04-16 14:59 37.38613 -5.93568 3085 ft 225 kts 154°
2026-04-16 14:59 37.37507 -5.92273 3091 ft 224 kts 118°
2026-04-16 14:59 37.36772 -5.90481 2913 ft 230 kts 116°
2026-04-16 15:00 37.36068 -5.88685 2709 ft 230 kts 115°
2026-04-16 15:00 37.35373 -5.86882 2524 ft 228 kts 115°
2026-04-16 15:00 37.34680 -5.85093 2335 ft 228 kts 114°
2026-04-16 15:00 37.33998 -5.83319 2148 ft 229 kts 114°
2026-04-16 15:01 37.33376 -5.81508 2016 ft 224 kts 101°
2026-04-16 15:01 37.33199 -5.79606 1979 ft 218 kts 92°
2026-04-16 15:01 37.33093 -5.77740 1957 ft 209 kts 91°
2026-04-16 15:01 37.33185 -5.75985 1955 ft 195 kts 83°
2026-04-16 15:02 37.33310 -5.74318 1983 ft 192 kts 83°
2026-04-16 15:02 37.33429 -5.72648 2030 ft 193 kts 83°
2026-04-16 15:02 37.33578 -5.70950 1979 ft 196 kts 74°
2026-04-16 15:02 37.34356 -5.69635 1968 ft 190 kts 24°
2026-04-16 15:03 37.35657 -5.69211 1934 ft 198 kts 11°
2026-04-16 15:03 37.36980 -5.68869 1992 ft 195 kts 11°
2026-04-16 15:03 37.38332 -5.68536 2003 ft 200 kts
2026-04-16 15:03 37.39659 -5.68835 1998 ft 196 kts 323°
2026-04-16 15:04 37.40456 -5.70183 2009 ft 194 kts 293°
2026-04-16 15:04 37.41024 -5.71748 1978 ft 196 kts 287°
2026-04-16 15:04 37.41371 -5.73379 1946 ft 189 kts 283°
2026-04-16 15:04 37.41691 -5.74956 1977 ft 184 kts 277°
2026-04-16 15:05 37.41809 -5.76535 1775 ft 178 kts 271°
2026-04-16 15:05 37.41840 -5.78068 1609 ft 176 kts 266°
2026-04-16 15:05 37.41830 -5.79612 1402 ft 174 kts 268°
2026-04-16 15:05 37.41831 -5.81130 1121 ft 173 kts 268°
2026-04-16 15:06 37.41824 -5.82625 897 ft 172 kts 268°
2026-04-16 15:06 37.41817 -5.84126 683 ft 164 kts 267°
2026-04-16 15:06 37.41806 -5.85481 453 ft 150 kts 265°
2026-04-16 15:06 37.41779 -5.86760 269 ft 147 kts 269°
2026-04-16 15:07 37.41798 -5.88017 115 ft 142 kts 265°
2026-04-16 15:07 37.41802 -5.89075 106 ft 98 kts 273°
2026-04-16 15:07 37.41799 -5.89698 99 ft 33 kts 290°
2026-04-16 15:07 37.41839 -5.89759 101 ft 12 kts 320°
2026-04-16 15:08 37.41905 -5.89831 100 ft 13 kts 324°
2026-04-16 15:08 37.41991 -5.89849 100 ft 13 kts 19°
2026-04-16 15:08 37.42069 -5.89772 98 ft 17 kts 46°
2026-04-16 15:08 37.42167 -5.89652 99 ft 21 kts 29°
2026-04-16 15:09 37.42260 -5.89719 98 ft 17 kts 305°
2026-04-16 15:09 37.42348 -5.89804 97 ft 1 kts 326°